UFO 2 (USA 95)

Last updated on Sun Apr 12 2026 00:02:50 GMT+0000 (Coordinated Universal Time)

1 22787U 93056A 26101.30669831 .00000131 00000+0 00000+0 0 9998 2 22787 11.8723 3.9209 0009358 347.9592 346.6735 1.00271392117870
UTC large
Height (km)
Speed (km/s)
/
Latitude / Longitude
Inclination (degrees)
Orbital Period (minutes)
Azimuth
Elevation
Range (km)
Doppler Factor

Next 0 passes for location: London (51.5072 / 0.1276)

Sorry there are no passes over London.
UFO 2 (USA 95)